User: anonymous   Login
Location: Muenchen
(48.1800°N, 11.5800°E)
Time: 01:58:40
(UTC+01:00)
Language:

Iridium 73 - Orbit

View from above orbital plane
View from above orbital plane
View from above satellite
View from above satellite

Ground track
Ground track

The orbit data is extracted from the following two-line orbital elements,

1 25344U 98032C   15060.46191032  .00000836  00000-0  21707-3 0  9995
2 25344 086.4462 197.2868 0002014 074.1084 350.1919 14.48627809886113
Epoch (UTC): 01 March 2015 11:05:09
Eccentricity: 0.0002014
inclination: 86.4462°
perigee height: 729 km
apogee height: 731 km
right ascension of ascending node: 197.2868°
argument of perigee: 74.1084°
revolutions per day: 14.48627809
mean anomaly at epoch: 350.1919°
orbit number at epoch: 88611

The dashed part of the orbit path shows where the satellite is in the earth's shadow,  

DLR